This demonstration page uses our WeatherBlox Daily Observations layout. Learn more.

Left ArrowRight Arrow

34.16533, -84.80231

Hourly Observations for November 8, 2020

Temp ( °F °C ) Dew Point ( °F °C ) Humidity (%) Winds ( mph kmh ) Pressure ( in mb ) Visibility ( mi km ) Precip ( " mm )
12:53 am 00:53 Cloudy 67 19.4 59 15 76 76 VRB 5 7 30.20 1023 10 16 0.00 0.00
1:53 am 01:53 Clear 66 18.9 59 15 78 78 VRB 5 7 30.19 1022 10 16 0.00 0.00
2:53 am 02:53 Clear 64 17.8 58 14.4 81 81 ENE 3 6 30.20 1023 10 16 0.00 0.00
3:53 am 03:53 Clear 65 18.3 58 14.4 78 78 ENE 3 6 30.19 1022 10 16 0.00 0.00
4:53 am 04:53 Clear 64 17.8 58 14.4 81 81 ENE 3 6 30.19 1023 10 16 0.00 0.00
5:53 am 05:53 Clear 64 17.8 58 14.4 81 81 ENE 5 7 30.20 1023 10 16 0.00 0.00
6:53 am 06:53 Clear 61 16.1 58 14.4 90 90 Calm 30.22 1023 10 16 0.00 0.00
7:53 am 07:53 Sunny 62 16.7 58 14.4 86 86 Calm 30.23 1024 10 16 0.00 0.00
8:53 am 08:53 Mostly Cloudy 67 19.4 60 15.6 79 79 ENE 6 9 30.24 1024 10 16 0.00 0.00
9:24 am 09:24 Mostly Cloudy 69 20.6 60 15.6 73 73 E 8 13 30.25 1024 10 16 0.00 0.00
9:53 am 09:53 Cloudy 70 21.1 60 15.6 71 71 VRB 6 9 30.24 1024 10 16 0.00 0.00
10:40 am 10:40 Partly Cloudy 74 23.3 61 16.1 64 64 E 14 22 30.24 1024 10 16 0.00 0.00
10:53 am 10:53 Partly Cloudy 73 22.8 61 16.1 66 66 E 9 15 30.24 1024 10 16 0.00 0.00
11:01 am 11:01 Mostly Cloudy 73 22.8 61 16.1 66 66 E 10 17 30.24 1024 10 16 0.00 0.00
11:34 am 11:34 Mostly Cloudy 73 22.8 61 16.1 66 66 E 12 19 30.23 1024 10 16 0.00 0.00
11:53 am 11:53 Cloudy 73 22.8 61 16.1 66 66 ESE 10 17 30.23 1024 10 16 0.00 0.00
12:53 pm 12:53 Cloudy 73 22.8 61 16.1 66 66 E 8 13 30.22 1023 10 16 0.00 0.00
1:53 pm 13:53 Mostly Cloudy 77 25 62 16.7 60 60 VRB 6 9 30.19 1023 10 16 0.00 0.00
2:53 pm 14:53 Mostly Cloudy 75 23.9 62 16.7 64 64 ENE 12 19 30.19 1023 10 16 0.00 0.00
3:53 pm 15:53 Mostly Cloudy 75 23.9 62 16.7 64 64 E 8 13 30.20 1023 10 16 0.00 0.00
4:53 pm 16:53 Mostly Cloudy 73 22.8 62 16.7 69 69 E 5 7 30.19 1023 10 16 0.00 0.00
5:53 pm 17:53 Partly Cloudy 72 22.2 61 16.1 68 68 E 7 11 30.19 1022 10 16 0.00 0.00
6:53 pm 18:53 Mostly Cloudy 72 22.2 62 16.7 71 71 E 3 6 30.21 1023 10 16 0.00 0.00
7:53 pm 19:53 Mostly Cloudy 71 21.7 62 16.7 73 73 E 3 6 30.21 1023 10 16 0.00 0.00
8:53 pm 20:53 Mostly Cloudy 71 21.7 61 16.1 71 71 ENE 5 7 30.21 1023 10 16 0.00 0.00
9:53 pm 21:53 Clear 70 21.1 61 16.1 73 73 E 6 9 30.21 1023 10 16 0.00 0.00
10:53 pm 22:53 Partly Cloudy 70 21.1 60 15.6 71 71 E 7 11 30.21 1023 10 16 0.00 0.00
11:53 pm 23:53 Clear 70 21.1 60 15.6 71 71 VRB 6 9 30.20 1023 10 16 0.00 0.00

Powered by AerisWeather